Location: Avoca
(45.7167°N, 74.7000°W)
Time: 17:55:05
(UTC+00:00)

Envisat - Visible Passes

Search period start: 27 November 2022 00:00
Search period end: 07 December 2022 00:00
Orbit: 763 x 765 km, 98.2° (Epoch: 26 November)

Date Brightness Start Highest point End Pass type
(mag) Time Alt. Az. Time Alt. Az. Time Alt. Az.
27 Nov 5.8 08:08:24 10° NE 08:09:08 13° NE 08:09:08 13° NE visible
27 Nov 4.0 09:46:28 10° N 09:49:19 32° N 09:49:19 32° N visible
28 Nov 4.6 09:09:24 10° NNE 09:11:40 27° NNE 09:11:40 27° NNE visible
28 Nov 4.5 10:49:37 10° NNW 10:51:50 17° NW 10:51:50 17° NW visible
29 Nov 5.4 08:32:47 10° NNE 08:34:01 16° NE 08:34:01 16° NE visible
29 Nov 4.3 10:11:47 10° N 10:14:12 24° NNW 10:14:12 24° NNW visible
30 Nov 4.5 09:34:27 10° N 09:36:34 25° N 09:36:34 25° N visible
30 Nov 4.9 11:16:10 10° NW 11:16:44 11° NW 11:16:44 11° NW visible
01 Dec 5.1 08:57:31 10° NNE 08:58:57 19° NNE 08:58:57 19° NNE visible
01 Dec 4.6 10:37:19 10° NNW 10:39:07 17° NNW 10:39:07 17° NNW visible
01 Dec 6.1 21:57:04 10° WSW 21:58:55 12° W 22:00:47 10° WNW visible
02 Dec 5.8 08:21:05 10° NE 08:21:20 11° NE 08:21:20 11° NE visible
02 Dec 4.6 09:59:41 10° N 10:01:31 21° N 10:01:31 21° N visible
03 Dec 4.9 09:22:29 10° NNE 09:23:54 19° NNE 09:23:54 19° NNE visible
03 Dec 4.9 11:03:19 10° NNW 11:04:05 12° NW 11:04:05 12° NW visible
04 Dec 5.5 08:45:40 10° NNE 08:46:19 13° NNE 08:46:19 13° NNE visible
04 Dec 4.7 10:25:06 10° N 10:26:30 17° NNW 10:26:30 17° NNW visible
04 Dec 5.9 21:43:51 10° SW 21:46:48 15° W 21:49:46 10° NW visible
05 Dec 4.9 09:47:37 10° N 09:48:54 18° N 09:48:54 18° N visible
06 Dec 5.3 09:10:32 10° NNE 09:11:19 15° NNE 09:11:19 15° NNE visible
06 Dec 4.9 10:50:50 10° NNW 10:51:30 12° NNW 10:51:30 12° NNW visible
